• In Uzbekistan
  • List of Countries
  • For 7 days
  • Water Temperature
  • Satellite Maps
  • Weather Map
  • Weather Widgets
  • user-avatar
    Login

    Hourly Weather Bregenz

    Today, 26 July, Wednesday

    Time Temperature Precipitation Wind Pressure Humidity
    00:00 +5°C° 0.4 mm 3 mps 642 mmHg 95%
    01:00 +5°C° 0.4 mm 3 mps 642 mmHg 95%
    02:00 +5°C° 0.5 mm 3 mps 642 mmHg 95%
    03:00 +5°C° 0.5 mm 3 mps 642 mmHg 95%
    04:00 +5°C° 0.5 mm 4 mps 641 mmHg 94%
    05:00 +5°C° 1.7 mm 4 mps 642 mmHg 94%
    06:00 +5°C° 1.7 mm 4 mps 642 mmHg 94%
    07:00 +5°C° 1.7 mm 4 mps 642 mmHg 94%
    08:00 +6°C° 1.6 mm 4 mps 642 mmHg 93%
    09:00 +7°C° 1.6 mm 3 mps 642 mmHg 92%
    10:00 +7°C° 1.6 mm 3 mps 643 mmHg 92%
    11:00 +8°C° 0.8 mm 3 mps 643 mmHg 90%
    12:00 +8°C° 0.8 mm 3 mps 643 mmHg 89%
    13:00 +9°C° 0.8 mm 3 mps 643 mmHg 87%
    14:00 +9°C° 0.5 mm 3 mps 643 mmHg 86%
    15:00 +10°C° 0.5 mm 2 mps 644 mmHg 84%
    16:00 +10°C° 0.5 mm 2 mps 644 mmHg 83%
    17:00 +10°C° 0.5 mm 2 mps 644 mmHg 85%
    18:00 +10°C° 0.5 mm 2 mps 644 mmHg 88%
    19:00 +9°C° 0.5 mm 2 mps 644 mmHg 90%
    20:00 +8°C° 0.1 mm 2 mps 644 mmHg 91%
    21:00 +8°C° 0.1 mm 2 mps 644 mmHg 92%
    22:00 +7°C° 0.1 mm 2 mps 644 mmHg 94%
    23:00 +6°C° 0 mm 2 mps 644 mmHg 93%

    Tomorrow, 27 July, Thursday

    Time Temperature Precipitation Wind Pressure Humidity
    00:00 +6°C° 0 mm 2 mps 644 mmHg 93%
    01:00 +6°C° 0 mm 2 mps 644 mmHg 92%
    02:00 +6°C° 0 mm 2 mps 644 mmHg 90%
    03:00 +6°C° 0 mm 2 mps 644 mmHg 87%
    04:00 +6°C° 0 mm 2 mps 644 mmHg 84%
    05:00 +7°C° 0.1 mm 2 mps 644 mmHg 82%
    06:00 +7°C° 0.1 mm 2 mps 644 mmHg 80%
    07:00 +8°C° 0.1 mm 2 mps 644 mmHg 78%
    08:00 +9°C° 0.1 mm 2 mps 645 mmHg 76%
    09:00 +10°C° 0.1 mm 2 mps 645 mmHg 75%
    10:00 +12°C° 0.1 mm 1 mps 645 mmHg 74%
    11:00 +13°C° 0 mm 2 mps 645 mmHg 71%
    12:00 +15°C° 0 mm 2 mps 646 mmHg 69%
    13:00 +16°C° 0 mm 2 mps 646 mmHg 66%
    14:00 +17°C° 0.1 mm 2 mps 646 mmHg 67%
    15:00 +17°C° 0.1 mm 2 mps 646 mmHg 68%
    16:00 +17°C° 0.1 mm 3 mps 646 mmHg 69%
    17:00 +16°C° 0.1 mm 2 mps 646 mmHg 75%
    18:00 +16°C° 0.1 mm 2 mps 646 mmHg 80%
    19:00 +15°C° 0.1 mm 1 mps 646 mmHg 86%
    20:00 +14°C° 0.1 mm 1 mps 646 mmHg 89%
    21:00 +12°C° 0.1 mm 1 mps 646 mmHg 92%
    22:00 +11°C° 0.1 mm 1 mps 646 mmHg 95%
    23:00 +11°C° 0.1 mm 1 mps 646 mmHg 96%

    Day after tomorrow, 28 July, Friday

    Time Temperature Precipitation Wind Pressure Humidity
    00:00 +11°C° 0.1 mm 1 mps 646 mmHg 96%
    01:00 +10°C° 0.1 mm 1 mps 646 mmHg 96%
    02:00 +10°C° 0.1 mm 1 mps 646 mmHg 96%
    03:00 +9°C° 0.1 mm 2 mps 645 mmHg 95%
    04:00 +9°C° 0.1 mm 2 mps 645 mmHg 95%
    05:00 +10°C° 0.1 mm 2 mps 646 mmHg 93%
    06:00 +12°C° 0.1 mm 2 mps 646 mmHg 91%
    07:00 +12°C° 0.1 mm 1 mps 646 mmHg 89%
    08:00 +13°C° 0.3 mm 2 mps 647 mmHg 86%
    09:00 +14°C° 0.3 mm 2 mps 647 mmHg 84%
    10:00 +14°C° 0.3 mm 2 mps 647 mmHg 81%
    11:00 +15°C° 0.1 mm 2 mps 648 mmHg 77%
    12:00 +17°C° 0.1 mm 3 mps 648 mmHg 73%
    13:00 +18°C° 0.1 mm 3 mps 649 mmHg 70%
    14:00 +18°C° 0 mm 3 mps 649 mmHg 70%
    15:00 +18°C° 0 mm 3 mps 649 mmHg 70%
    16:00 +18°C° 0 mm 3 mps 649 mmHg 69%
    17:00 +18°C° 0 mm 2 mps 649 mmHg 74%
    18:00 +17°C° 0 mm 2 mps 649 mmHg 79%
    19:00 +16°C° 0 mm 1 mps 649 mmHg 84%
    20:00 +15°C° 0 mm 1 mps 649 mmHg 87%
    21:00 +13°C° 0 mm 1 mps 649 mmHg 90%
    22:00 +12°C° 0 mm 1 mps 649 mmHg 94%
    23:00 +12°C° 0 mm 1 mps 649 mmHg 93%

    29 July, Saturday

    Time Temperature Precipitation Wind Pressure Humidity
    00:00 +12°C° 0 mm 1 mps 648 mmHg 92%
    01:00 +11°C° 0 mm 1 mps 648 mmHg 92%
    02:00 +11°C° 0 mm 1 mps 648 mmHg 91%
    03:00 +11°C° 0 mm 1 mps 648 mmHg 91%
    04:00 +11°C° 0 mm 1 mps 648 mmHg 90%
    05:00 +12°C° 0 mm 1 mps 649 mmHg 87%
    06:00 +14°C° 0 mm 1 mps 649 mmHg 85%
    07:00 +15°C° 0 mm 1 mps 649 mmHg 82%
    08:00 +16°C° 0.1 mm 1 mps 650 mmHg 80%
    09:00 +18°C° 0.1 mm 1 mps 650 mmHg 78%
    10:00 +18°C° 0.1 mm 1 mps 650 mmHg 75%
    11:00 +19°C° 0.4 mm 1 mps 651 mmHg 77%
    12:00 +19°C° 0.4 mm 1 mps 651 mmHg 78%
    13:00 +18°C° 0.4 mm 2 mps 651 mmHg 80%
    14:00 +18°C° 0.5 mm 2 mps 650 mmHg 81%
    15:00 +19°C° 0.5 mm 1 mps 650 mmHg 82%
    16:00 +18°C° 0.5 mm 1 mps 650 mmHg 83%
    17:00 +18°C° 0.3 mm 1 mps 650 mmHg 84%
    18:00 +18°C° 0.3 mm 1 mps 650 mmHg 86%
    19:00 +16°C° 0.3 mm 1 mps 650 mmHg 87%
    20:00 +15°C° 0.2 mm 1 mps 650 mmHg 88%
    21:00 +14°C° 0.2 mm 1 mps 650 mmHg 89%
    22:00 +14°C° 0.2 mm 1 mps 650 mmHg 90%
    23:00 +13°C° 0.1 mm 1 mps 649 mmHg 89%

    30 July, Sunday

    Time Temperature Precipitation Wind Pressure Humidity
    00:00 +13°C° 0.1 mm 1 mps 649 mmHg 88%
    01:00 +13°C° 0.1 mm 1 mps 649 mmHg 87%
    02:00 +13°C° 0 mm 1 mps 649 mmHg 87%
    03:00 +12°C° 0 mm 1 mps 648 mmHg 86%
    04:00 +12°C° 0 mm 1 mps 648 mmHg 85%
    05:00 +13°C° 0 mm 1 mps 648 mmHg 83%
    06:00 +14°C° 0 mm 1 mps 648 mmHg 81%
    07:00 +16°C° 0 mm 1 mps 649 mmHg 79%
    08:00 +19°C° 0.1 mm 1 mps 649 mmHg 70%
    09:00 +21°C° 0.1 mm 1 mps 650 mmHg 61%
    10:00 +24°C° 0.1 mm 1 mps 650 mmHg 52%
    11:00 +24°C° 0.1 mm 1 mps 650 mmHg 51%
    12:00 +25°C° 0.1 mm 2 mps 650 mmHg 49%
    13:00 +26°C° 0.1 mm 3 mps 650 mmHg 48%
    14:00 +25°C° 0.2 mm 2 mps 650 mmHg 50%
    15:00 +25°C° 0.2 mm 2 mps 650 mmHg 52%
    16:00 +25°C° 0.2 mm 2 mps 650 mmHg 54%
    17:00 +23°C° 0.3 mm 2 mps 650 mmHg 62%
    18:00 +22°C° 0.3 mm 1 mps 650 mmHg 70%
    19:00 +20°C° 0.3 mm 1 mps 649 mmHg 79%
    20:00 +19°C° 0 mm 1 mps 649 mmHg 81%
    21:00 +16°C° 0 mm 1 mps 649 mmHg 83%
    22:00 +15°C° 0 mm 1 mps 649 mmHg 85%
    23:00 +15°C° 0 mm 2 mps 649 mmHg 85%

    31 July, Monday

    Time Temperature Precipitation Wind Pressure Humidity
    00:00 +14°C° 0 mm 2 mps 649 mmHg 85%
    01:00 +14°C° 0 mm 2 mps 649 mmHg 85%
    02:00 +14°C° 0 mm 2 mps 649 mmHg 85%
    03:00 +14°C° 0 mm 2 mps 649 mmHg 86%
    04:00 +14°C° 0 mm 2 mps 648 mmHg 86%
    05:00 +15°C° 0 mm 2 mps 649 mmHg 83%
    06:00 +16°C° 0 mm 2 mps 649 mmHg 81%
    07:00 +17°C° 0 mm 2 mps 649 mmHg 78%
    08:00 +20°C° 0 mm 1 mps 650 mmHg 70%
    09:00 +22°C° 0 mm 1 mps 650 mmHg 62%
    10:00 +25°C° 0 mm 1 mps 651 mmHg 53%
    11:00 +26°C° 0 mm 1 mps 651 mmHg 50%
    12:00 +27°C° 0 mm 2 mps 651 mmHg 48%
    13:00 +28°C° 0 mm 2 mps 651 mmHg 45%
    14:00 +28°C° 0 mm 2 mps 651 mmHg 46%
    15:00 +27°C° 0 mm 2 mps 650 mmHg 47%
    16:00 +27°C° 0 mm 2 mps 650 mmHg 48%
    17:00 +26°C° 0.1 mm 2 mps 650 mmHg 56%
    18:00 +24°C° 0.1 mm 2 mps 649 mmHg 63%
    19:00 +23°C° 0.1 mm 1 mps 649 mmHg 71%
    20:00 +20°C° 0.1 mm 2 mps 649 mmHg 73%
    21:00 +19°C° 0.1 mm 2 mps 649 mmHg 75%
    22:00 +17°C° 0.1 mm 3 mps 649 mmHg 77%
    23:00 +17°C° 0 mm 3 mps 648 mmHg 78%
    Show more